DW9768 Weather Reports


Display with metric or nautical units.
time (UTC)temp
F
wind
direction
speed
MPH
gust
MPH
rain 1hr
in
rain 24hr
in
rain mn
in
humidity
%
barometer
mb
20260831004543 56 320 0.0 2.0 0.00 0.00 0.00 88 1005.6
20260831003043 56 323 2.0 4.0 0.00 0.00 0.00 88 1005.7
20260831001541 56 296 0.0 0.0 0.00 0.00 0.00 88 1005.7
20260831000040 56 308 1.0 4.0 0.00 0.00 0.00 88 1005.9
20260830234544 56 309 2.0 5.0 0.00 0.00 0.00 88 1006.0
20260830233037 57 328 2.0 5.0 0.00 0.00 0.00 88 1005.9
20260830231541 57 338 2.0 5.0 0.00 0.00 0.00 87 1006.0
20260830230043 57 314 1.0 3.0 0.00 0.00 0.00 87 1006.0
20260830224534 57 305 1.0 3.0 0.00 0.00 0.00 87 1006.0
20260830223033 57 298 0.0 2.0 0.00 0.00 0.00 87 1006.0
20260830221532 57 298 0.0 0.0 0.00 0.00 0.00 87 1005.9
20260830220032 57 298 0.0 4.0 0.00 0.00 0.00 86 1005.9
20260830214529 57 279 1.0 3.0 0.00 0.00 0.00 86 1005.9
20260830213027 57 298 2.0 3.0 0.00 0.00 0.00 86 1005.8
20260830211527 57 288 0.0 3.0 0.00 0.00 0.00 85 1005.8
20260830210026 57 261 2.0 4.0 0.00 0.00 0.00 85 1005.7
20260830204526 57 280 2.0 4.0 0.00 0.00 0.00 85 1005.6
20260830203028 57 299 1.0 5.0 0.00 0.00 0.00 85 1005.6
20260830201534 58 314 4.0 9.0 0.00 0.00 0.00 85 1005.6
20260830200022 58 284 2.0 5.0 0.00 0.00 0.00 85 1005.6
20260830194520 58 318 2.0 5.0 0.00 0.00 0.00 84 1005.5
20260830193019 58 282 3.0 7.0 0.00 0.00 0.00 83 1005.4
20260830191523 58 267 0.0 2.0 0.00 0.00 0.00 83 1005.2
20260830190017 58 301 2.0 4.0 0.00 0.00 0.00 83 1005.1
20260830184514 58 300 1.0 4.0 0.00 0.00 0.00 83 1005.1
20260830183013 58 298 4.0 9.0 0.00 0.00 0.00 82 1005.0
20260830181511 58 254 2.0 8.0 0.00 0.00 0.00 83 1004.9
20260830180018 58 290 3.0 10.0 0.00 0.00 0.00 82 1004.7
20260830174510 58 297 4.0 9.0 0.00 0.00 0.00 82 1004.6
20260830173007 59 262 2.0 5.0 0.00 0.00 0.00 81 1004.5
20260830171506 59 304 4.0 8.0 0.00 0.00 0.00 81 1004.3
20260830170005 59 327 3.0 7.0 0.00 0.00 0.00 80 1004.3
20260830164503 59 305 2.0 5.0 0.00 0.00 0.00 81 1004.2
20260830163005 59 263 0.0 9.0 0.00 0.00 0.00 81 1004.1
20260830161606 59 319 4.0 8.0 0.00 0.00 0.00 80 1003.9
20260830160100 59 298 4.0 8.0 0.00 0.00 0.00 81 1003.9
20260830154558 59 297 3.0 8.0 0.00 0.00 0.00 82 1003.8
20260830153057 59 273 2.0 8.0 0.00 0.00 0.00 82 1003.8
20260830151602 59 312 4.0 8.0 0.00 0.00 0.00 81 1003.7
20260830150054 59 322 3.0 10.0 0.00 0.00 0.00 82 1003.6
20260830144553 59 309 4.0 8.0 0.00 0.00 0.00 82 1003.6
20260830143101 59 291 6.0 11.0 0.00 0.00 0.00 83 1003.6
20260830141556 59 259 3.0 9.0 0.00 0.00 0.00 83 1003.4
20260830140051 59 277 4.0 10.0 0.00 0.00 0.00 82 1003.4
20260830134553 60 302 4.0 9.0 0.00 0.00 0.00 82 1003.4
20260830133103 60 313 4.0 12.0 0.00 0.00 0.00 82 1003.1
20260830131545 60 293 6.0 12.0 0.00 0.00 0.00 82 1002.9
20260830130045 60 285 5.0 10.0 0.00 0.00 0.00 82 1002.9
20260830124545 60 267 3.0 8.0 0.00 0.01 0.00 83 1002.8
20260830123041 60 288 3.0 10.0 0.00 0.01 0.00 82 1002.6
20260830121540 60 265 3.0 8.0 0.00 0.01 0.00 81 1002.6
20260830120039 60 314 2.0 9.0 0.00 0.01 0.00 82 1002.5
20260830114554 60 336 3.0 11.0 0.00 0.18 0.00 83 1002.5
20260830113037 60 322 4.0 9.0 0.00 0.18 0.00 82 1002.5
20260830111537 60 331 4.0 9.0 0.00 0.18 0.00 83 1002.3
20260830110037 60 336 4.0 10.0 0.00 0.18 0.00 83 1002.2
20260830104537 60 309 5.0 12.0 0.00 0.20 0.00 83 1002.1
20260830103034 59 312 6.0 10.0 0.00 0.20 0.00 83 1002.1
20260830101532 59 307 2.0 6.0 0.00 0.20 0.00 84 1002.1
20260830100030 59 319 3.0 9.0 0.00 0.20 0.00 85 1002.0
20260830094534 59 323 4.0 9.0 0.00 0.20 0.00 85 1002.0
20260830093027 59 300 4.0 9.0 0.00 0.20 0.00 85 1001.8
20260830091526 59 290 5.0 10.0 0.00 0.20 0.00 85 1001.7
20260830090030 58 284 5.0 11.0 0.00 0.20 0.00 86 1001.6
20260830084524 58 283 2.0 8.0 0.00 0.20 0.00 88 1001.5
20260830083022 58 284 5.0 9.0 0.00 0.20 0.00 88 1001.6
20260830081521 58 329 3.0 10.0 0.00 0.20 0.00 89 1001.5
20260830080020 58 308 3.0 8.0 0.00 0.20 0.00 89 1001.4
20260830074520 58 290 3.0 7.0 0.00 0.20 0.00 89 1001.4
20260830073022 58 284 1.0 6.0 0.00 0.20 0.00 89 1001.2
20260830071516 58 290 1.0 6.0 0.00 0.20 0.00 90 1001.1
20260830070013 58 276 4.0 7.0 0.00 0.20 0.00 90 1001.0
20260830064514 58 315 2.0 4.0 0.00 0.20 0.00 91 1000.9
20260830063010 58 302 1.0 8.0 0.00 0.20 0.00 90 1000.8
20260830061514 58 279 0.0 3.0 0.00 0.20 0.00 91 1000.7
20260830060011 58 292 2.0 5.0 0.00 0.20 0.00 91 1000.5
20260830054509 58 308 2.0 8.0 0.00 0.39 0.00 91 1000.5
20260830053005 58 315 4.0 9.0 0.00 0.39 0.00 91 1000.4
20260830051504 58 315 1.0 8.0 0.00 0.39 0.00 91 1000.4
20260830050003 58 345 3.0 8.0 0.00 0.39 0.00 91 1000.3
20260830044502 58 303 2.0 10.0 0.00 0.45 0.00 91 1000.3
20260830043102 58 306 3.0 9.0 0.00 0.45 0.00 91 1000.3
20260830041603 58 311 5.0 10.0 0.00 0.45 0.00 91 1000.2
20260830040100 58 336 6.0 10.0 0.00 0.45 0.00 91 1000.1
20260830034558 58 315 2.0 6.0 0.00 0.50 0.00 91 1000.0
20260830033053 58 319 3.0 9.0 0.00 0.50 0.00 91 1000.0
20260830031552 58 321 2.0 5.0 0.00 0.50 0.00 91 1000.1
20260830030052 58 286 3.0 9.0 0.00 0.50 0.00 91 1000.0
20260830024549 58 332 3.0 10.0 0.00 0.54 0.00 92 1000.0
20260830023102 58 315 2.0 8.0 0.00 0.54 0.00 92 1000.0
20260830021547 58 297 3.0 6.0 0.00 0.54 0.00 92 1000.0
20260830020146 58 265 3.0 8.0 0.00 0.54 0.00 92 1000.0
20260830014547 59 309 1.0 4.0 0.00 0.55 0.00 93 999.9
20260830013043 59 315 1.0 4.0 0.00 0.55 0.00 93 999.9
20260830011604 59 306 0.0 2.0 0.00 0.55 0.00 93 999.9
20260830010043 59 281 0.0 2.0 0.00 0.55 0.00 93 999.8